TimeHST,TemperatureF,Dew PointF,Humidity,Sea Level PressureIn,VisibilityMPH,Wind Direction,Wind SpeedMPH,Gust SpeedMPH,PrecipitationIn,Events,Conditions,WindDirDegrees,DateUTC
12:53 AM,75.9,64.9,69,30.01,10.0,ENE,10.4,-,N/A,,Partly Cloudy,60,2012-09-22 10:53:00
1:53 AM,75.9,66.0,71,30.00,10.0,ENE,6.9,-,N/A,,Partly Cloudy,70,2012-09-22 11:53:00
2:53 AM,75.9,66.0,71,30.00,10.0,East,9.2,-,N/A,,Partly Cloudy,80,2012-09-22 12:53:00
3:53 AM,75.0,66.0,73,30.00,10.0,East,10.4,-,N/A,,Partly Cloudy,80,2012-09-22 13:53:00
4:53 AM,75.9,66.0,71,30.01,10.0,ENE,8.1,-,N/A,,Scattered Clouds,60,2012-09-22 14:53:00
5:53 AM,75.0,66.9,76,30.01,10.0,East,11.5,-,N/A,,Partly Cloudy,80,2012-09-22 15:53:00
6:53 AM,75.9,66.0,71,30.02,10.0,NE,10.4,-,N/A,,Partly Cloudy,50,2012-09-22 16:53:00
7:53 AM,77.0,64.9,66,30.04,10.0,NE,12.7,-,N/A,,Scattered Clouds,50,2012-09-22 17:53:00
8:53 AM,80.1,66.0,62,30.04,10.0,ENE,11.5,-,N/A,,Mostly Cloudy,60,2012-09-22 18:53:00
9:53 AM,81.0,66.0,60,30.04,10.0,ENE,15.0,-,N/A,,Mostly Cloudy,60,2012-09-22 19:53:00
10:53 AM,82.0,66.0,58,30.03,10.0,NE,12.7,-,N/A,,Mostly Cloudy,50,2012-09-22 20:53:00
11:53 AM,82.9,63.0,51,30.02,10.0,ENE,13.8,23.0,0.00,,Mostly Cloudy,70,2012-09-22 21:53:00
12:53 PM,86.0,61.0,43,29.99,10.0,NE,20.7,27.6,N/A,,Scattered Clouds,50,2012-09-22 22:53:00
1:53 PM,86.0,63.0,46,29.97,10.0,NE,17.3,24.2,N/A,,Scattered Clouds,50,2012-09-22 23:53:00
2:53 PM,86.0,64.0,48,29.96,10.0,NE,17.3,-,N/A,,Scattered Clouds,40,2012-09-23 00:53:00
3:53 PM,82.9,64.0,53,29.97,10.0,ENE,17.3,21.9,N/A,,Scattered Clouds,60,2012-09-23 01:53:00
4:53 PM,82.9,64.0,53,29.97,10.0,ENE,19.6,-,N/A,,Scattered Clouds,60,2012-09-23 02:53:00
5:53 PM,81.0,64.9,58,29.98,10.0,NE,11.5,-,N/A,,Scattered Clouds,50,2012-09-23 03:53:00
6:53 PM,78.1,64.0,62,29.99,10.0,ENE,11.5,-,N/A,,Scattered Clouds,60,2012-09-23 04:53:00
7:53 PM,78.1,66.0,66,30.01,10.0,NE,9.2,-,N/A,,Scattered Clouds,40,2012-09-23 05:53:00
8:53 PM,78.1,66.0,66,30.02,10.0,NE,16.1,-,N/A,,Scattered Clouds,50,2012-09-23 06:53:00
9:53 PM,78.1,66.9,68,30.03,10.0,NE,17.3,24.2,N/A,,Scattered Clouds,50,2012-09-23 07:53:00
10:53 PM,78.1,68.0,71,30.03,10.0,ENE,13.8,-,0.00,Rain,Light Rain,60,2012-09-23 08:53:00
11:53 PM,77.0,68.0,74,30.02,10.0,ENE,15.0,21.9,0.00,Rain,Light Rain,60,2012-09-23 09:53:00